Year,Month,Day,Hour,Minute,Value (Times are PST for temperature in C)
2018,07,23,00,00,20.80
2018,07,23,00,01,20.80
2018,07,23,00,02,20.70
2018,07,23,00,03,20.70
2018,07,23,00,04,20.70
2018,07,23,00,05,20.70
2018,07,23,00,06,20.70
2018,07,23,00,07,20.70
2018,07,23,00,08,20.80
2018,07,23,00,09,20.80
2018,07,23,00,10,20.80
2018,07,23,00,11,20.90
2018,07,23,00,12,20.90
2018,07,23,00,13,20.90
2018,07,23,00,14,20.90
2018,07,23,00,15,20.90
2018,07,23,00,16,20.90
2018,07,23,00,17,20.90
2018,07,23,00,18,20.90
2018,07,23,00,19,20.80
2018,07,23,00,20,20.80
2018,07,23,00,21,20.80
2018,07,23,00,22,20.80
2018,07,23,00,23,20.70
2018,07,23,00,24,20.70
2018,07,23,00,25,20.70
2018,07,23,00,26,20.70
2018,07,23,00,27,20.70
2018,07,23,00,28,20.70
2018,07,23,00,29,20.60
2018,07,23,00,30,20.60
2018,07,23,00,31,20.60
2018,07,23,00,32,20.60
2018,07,23,00,33,20.60
2018,07,23,00,34,20.50
2018,07,23,00,35,20.50
2018,07,23,00,36,20.40
2018,07,23,00,37,20.40
2018,07,23,00,38,20.40
2018,07,23,00,39,20.30
2018,07,23,00,40,20.30
2018,07,23,00,41,20.30
2018,07,23,00,42,20.20
2018,07,23,00,43,20.20
2018,07,23,00,44,20.20
2018,07,23,00,45,20.20
2018,07,23,00,46,20.10
2018,07,23,00,47,20.10
2018,07,23,00,48,20.10
2018,07,23,00,49,20.10
2018,07,23,00,50,20.10
2018,07,23,00,51,20.10
2018,07,23,00,52,20.10
2018,07,23,00,53,20.10
2018,07,23,00,54,20.00
2018,07,23,00,55,20.00
2018,07,23,00,56,20.00
2018,07,23,00,57,19.90
2018,07,23,00,58,19.90
2018,07,23,00,59,19.90
2018,07,23,01,00,19.90
2018,07,23,01,01,19.90
2018,07,23,01,02,19.90
2018,07,23,01,03,19.80
2018,07,23,01,04,19.80
2018,07,23,01,05,19.80
2018,07,23,01,06,19.80
2018,07,23,01,07,19.80
2018,07,23,01,08,19.80
2018,07,23,01,09,19.80
2018,07,23,01,10,19.80
2018,07,23,01,11,19.70
2018,07,23,01,12,19.70
2018,07,23,01,13,19.70
2018,07,23,01,14,19.70
2018,07,23,01,15,19.70
2018,07,23,01,16,19.80
2018,07,23,01,17,20.10
2018,07,23,01,18,20.30
2018,07,23,01,19,20.70
2018,07,23,01,20,21.10
2018,07,23,01,21,21.50
2018,07,23,01,22,21.90
2018,07,23,01,23,22.20
2018,07,23,01,24,22.50
2018,07,23,01,25,22.70
2018,07,23,01,26,22.90
2018,07,23,01,27,23.10
2018,07,23,01,28,23.20
2018,07,23,01,29,23.30
2018,07,23,01,30,23.40
2018,07,23,01,31,23.40
2018,07,23,01,32,23.40
2018,07,23,01,33,23.50
2018,07,23,01,34,23.50
2018,07,23,01,35,23.50
2018,07,23,01,36,23.50
2018,07,23,01,37,23.50
2018,07,23,01,38,23.50
2018,07,23,01,39,23.50
2018,07,23,01,40,23.50
2018,07,23,01,41,23.40
2018,07,23,01,42,23.40
2018,07,23,01,43,23.40
2018,07,23,01,44,23.40
2018,07,23,01,45,23.40
2018,07,23,01,46,23.40
2018,07,23,01,47,23.40
2018,07,23,01,48,23.40
2018,07,23,01,49,23.30
2018,07,23,01,50,23.30
2018,07,23,01,51,23.30
2018,07,23,01,52,23.30
2018,07,23,01,53,23.30
2018,07,23,01,54,23.30
2018,07,23,01,55,23.20
2018,07,23,01,56,23.20
2018,07,23,01,57,23.20
2018,07,23,01,58,23.20
2018,07,23,01,59,23.20
2018,07,23,02,00,23.20
2018,07,23,02,01,23.20
2018,07,23,02,02,23.20
2018,07,23,02,03,23.20
2018,07,23,02,04,23.20
2018,07,23,02,05,23.20
2018,07,23,02,06,23.20
2018,07,23,02,07,23.20
2018,07,23,02,08,23.20
2018,07,23,02,09,23.20
2018,07,23,02,10,23.20
2018,07,23,02,11,23.20
2018,07,23,02,12,23.20
2018,07,23,02,13,23.20
2018,07,23,02,14,23.20
2018,07,23,02,15,23.20
2018,07,23,02,16,23.20
2018,07,23,02,17,23.20
2018,07,23,02,18,23.20
2018,07,23,02,19,23.20
2018,07,23,02,20,23.20
2018,07,23,02,21,23.20
2018,07,23,02,22,23.20
2018,07,23,02,23,23.20
2018,07,23,02,24,23.20
2018,07,23,02,25,23.10
2018,07,23,02,26,23.10
2018,07,23,02,27,23.10
2018,07,23,02,28,23.10
2018,07,23,02,29,23.10
2018,07,23,02,30,23.00
2018,07,23,02,31,23.00
2018,07,23,02,32,23.00
2018,07,23,02,33,22.90
2018,07,23,02,34,22.90
2018,07,23,02,35,22.90
2018,07,23,02,36,22.90
2018,07,23,02,37,22.90
2018,07,23,02,38,22.90
2018,07,23,02,39,22.90
2018,07,23,02,40,22.90
2018,07,23,02,41,22.90
2018,07,23,02,42,22.90
2018,07,23,02,43,22.90
2018,07,23,02,44,22.80
2018,07,23,02,45,22.80
2018,07,23,02,46,22.80
2018,07,23,02,47,22.80
2018,07,23,02,48,22.80
2018,07,23,02,49,22.80
2018,07,23,02,50,22.80
2018,07,23,02,51,22.80
2018,07,23,02,52,22.80
2018,07,23,02,53,22.80
2018,07,23,02,54,22.80
2018,07,23,02,55,22.80
2018,07,23,02,56,22.70
2018,07,23,02,57,22.70
2018,07,23,02,58,22.70
2018,07,23,02,59,22.70
2018,07,23,03,00,22.70
2018,07,23,03,01,22.70
2018,07,23,03,02,22.60
2018,07,23,03,03,22.60
2018,07,23,03,04,22.60
2018,07,23,03,05,22.60
2018,07,23,03,06,22.60
2018,07,23,03,07,22.60
2018,07,23,03,08,22.60
2018,07,23,03,09,22.50
2018,07,23,03,10,22.50
2018,07,23,03,11,22.50
2018,07,23,03,12,22.50
2018,07,23,03,13,22.50
2018,07,23,03,14,22.50
2018,07,23,03,15,22.40
2018,07,23,03,16,22.40
2018,07,23,03,17,22.40
2018,07,23,03,18,22.40
2018,07,23,03,19,22.40
2018,07,23,03,20,22.40
2018,07,23,03,21,22.40
2018,07,23,03,22,22.40
2018,07,23,03,23,22.40
2018,07,23,03,24,22.40
2018,07,23,03,25,22.40
2018,07,23,03,26,22.40
2018,07,23,03,27,22.40
2018,07,23,03,28,22.30
2018,07,23,03,29,22.30
2018,07,23,03,30,22.30
2018,07,23,03,31,22.30
2018,07,23,03,32,22.30
2018,07,23,03,33,22.30
2018,07,23,03,34,22.30
2018,07,23,03,35,22.20
2018,07,23,03,36,22.20
2018,07,23,03,37,22.20
2018,07,23,03,38,22.20
2018,07,23,03,39,22.20
2018,07,23,03,40,22.20
2018,07,23,03,41,22.10
2018,07,23,03,42,22.10
2018,07,23,03,43,22.10
2018,07,23,03,44,22.10
2018,07,23,03,45,22.10
2018,07,23,03,46,22.10
2018,07,23,03,47,22.10
2018,07,23,03,48,22.00
2018,07,23,03,49,22.00
2018,07,23,03,50,21.90
2018,07,23,03,51,21.90
2018,07,23,03,52,21.90
2018,07,23,03,53,21.90
2018,07,23,03,54,21.90
2018,07,23,03,55,22.00
2018,07,23,03,56,22.00
2018,07,23,03,57,22.00
2018,07,23,03,58,22.00
2018,07,23,03,59,22.00
2018,07,23,04,00,22.00
2018,07,23,04,01,22.00
2018,07,23,04,02,21.90
2018,07,23,04,03,21.90
2018,07,23,04,04,21.90
2018,07,23,04,05,21.90
2018,07,23,04,06,21.90
2018,07,23,04,07,21.90
2018,07,23,04,08,21.90
2018,07,23,04,09,21.90
2018,07,23,04,10,21.90
2018,07,23,04,11,21.80
2018,07,23,04,12,21.80
2018,07,23,04,13,21.80
2018,07,23,04,14,21.80
2018,07,23,04,15,21.80
2018,07,23,04,16,21.80
2018,07,23,04,17,21.70
2018,07,23,04,18,21.70
2018,07,23,04,19,21.70
2018,07,23,04,20,21.70
2018,07,23,04,21,21.60
2018,07,23,04,22,21.60
2018,07,23,04,23,21.60
2018,07,23,04,24,21.60
2018,07,23,04,25,21.60
2018,07,23,04,26,21.60
2018,07,23,04,27,21.60
2018,07,23,04,28,21.60
2018,07,23,04,29,21.60
2018,07,23,04,30,21.50
2018,07,23,04,31,21.50
2018,07,23,04,32,21.50
2018,07,23,04,33,21.50
2018,07,23,04,34,21.50
2018,07,23,04,35,21.50
2018,07,23,04,36,21.40
2018,07,23,04,37,21.40
2018,07,23,04,38,21.40
2018,07,23,04,39,21.40
2018,07,23,04,40,21.40
2018,07,23,04,41,21.40
2018,07,23,04,42,21.40
2018,07,23,04,43,21.40
2018,07,23,04,44,21.40
2018,07,23,04,45,21.40
2018,07,23,04,46,21.40
2018,07,23,04,47,21.40
2018,07,23,04,48,21.30
2018,07,23,04,49,21.30
2018,07,23,04,50,21.30
2018,07,23,04,51,21.30
2018,07,23,04,52,21.30
2018,07,23,04,53,21.30
2018,07,23,04,54,21.30
2018,07,23,04,55,21.30
2018,07,23,04,56,21.30
2018,07,23,04,57,21.30
2018,07,23,04,58,21.30
2018,07,23,04,59,21.30
2018,07,23,05,00,21.20
2018,07,23,05,01,21.20
2018,07,23,05,02,21.20
2018,07,23,05,03,21.20
2018,07,23,05,04,21.20
2018,07,23,05,05,21.20
2018,07,23,05,06,21.20
2018,07,23,05,07,21.20
2018,07,23,05,08,21.20
2018,07,23,05,09,21.20
2018,07,23,05,10,21.20
2018,07,23,05,11,21.20
2018,07,23,05,12,21.20
2018,07,23,05,13,21.20
2018,07,23,05,14,21.20
2018,07,23,05,15,21.20
2018,07,23,05,16,21.20
2018,07,23,05,17,21.20
2018,07,23,05,18,21.20
2018,07,23,05,19,21.20
2018,07,23,05,20,21.10
2018,07,23,05,21,21.10
2018,07,23,05,22,21.00
2018,07,23,05,23,21.00
2018,07,23,05,24,20.90
2018,07,23,05,25,20.90
2018,07,23,05,26,20.90
2018,07,23,05,27,20.80
2018,07,23,05,28,20.80
2018,07,23,05,29,20.80
2018,07,23,05,30,20.80
2018,07,23,05,31,20.70
2018,07,23,05,32,20.70
2018,07,23,05,33,20.70
2018,07,23,05,34,20.60
2018,07,23,05,35,20.60
2018,07,23,05,36,20.60
2018,07,23,05,37,20.60
2018,07,23,05,38,20.60
2018,07,23,05,39,20.60
2018,07,23,05,40,20.60
2018,07,23,05,41,20.60
2018,07,23,05,42,20.60
2018,07,23,05,43,20.60
2018,07,23,05,44,20.60
2018,07,23,05,45,20.60
2018,07,23,05,46,20.60
2018,07,23,05,47,20.60
2018,07,23,05,48,20.60
2018,07,23,05,49,20.60
2018,07,23,05,50,20.60
2018,07,23,05,51,20.60
2018,07,23,05,52,20.60
2018,07,23,05,53,20.60
2018,07,23,05,54,20.60
2018,07,23,05,55,20.70
2018,07,23,05,56,20.70
2018,07,23,05,57,20.70
2018,07,23,05,58,20.70
2018,07,23,05,59,20.80
2018,07,23,06,00,20.80
2018,07,23,06,01,20.80
2018,07,23,06,02,20.80
2018,07,23,06,03,20.80
2018,07,23,06,04,20.80
2018,07,23,06,05,20.80
2018,07,23,06,06,20.80
2018,07,23,06,07,20.80
2018,07,23,06,08,20.80
2018,07,23,06,09,20.80
2018,07,23,06,10,20.80
2018,07,23,06,11,20.80
2018,07,23,06,12,20.80
2018,07,23,06,13,20.80
2018,07,23,06,14,20.80
2018,07,23,06,15,20.80
2018,07,23,06,16,20.80
2018,07,23,06,17,20.80
2018,07,23,06,18,20.80
2018,07,23,06,19,20.70
2018,07,23,06,20,20.70
2018,07,23,06,21,20.70
2018,07,23,06,22,20.70
2018,07,23,06,23,20.70
2018,07,23,06,24,20.70
2018,07,23,06,25,20.70
2018,07,23,06,26,20.70
2018,07,23,06,27,20.70
2018,07,23,06,28,20.70
2018,07,23,06,29,20.70
2018,07,23,06,30,20.60
2018,07,23,06,31,20.60
2018,07,23,06,32,20.60
2018,07,23,06,33,20.50
2018,07,23,06,34,20.50
2018,07,23,06,35,20.50
2018,07,23,06,36,20.50
2018,07,23,06,37,20.40
2018,07,23,06,38,20.40
2018,07,23,06,39,20.40
2018,07,23,06,40,20.50
2018,07,23,06,41,20.50
2018,07,23,06,42,20.60
2018,07,23,06,43,20.60
2018,07,23,06,44,20.60
2018,07,23,06,45,20.60
2018,07,23,06,46,20.70
2018,07,23,06,47,20.70
2018,07,23,06,48,20.70
2018,07,23,06,49,20.70
2018,07,23,06,50,20.80
2018,07,23,06,51,20.90
2018,07,23,06,52,20.90
2018,07,23,06,53,21.00
2018,07,23,06,54,21.00
2018,07,23,06,55,21.10
2018,07,23,06,56,21.10
2018,07,23,06,57,21.20
2018,07,23,06,58,21.20
2018,07,23,06,59,21.20
2018,07,23,07,00,21.30
2018,07,23,07,01,21.30
2018,07,23,07,02,21.30
2018,07,23,07,03,21.30
2018,07,23,07,04,21.30
2018,07,23,07,05,21.40
2018,07,23,07,06,21.40
2018,07,23,07,07,21.40
2018,07,23,07,08,21.40
2018,07,23,07,09,21.40
2018,07,23,07,10,21.50
2018,07,23,07,11,21.50
2018,07,23,07,12,21.50
2018,07,23,07,13,21.50
2018,07,23,07,14,21.50
2018,07,23,07,15,21.50
2018,07,23,07,16,21.50
2018,07,23,07,17,21.50
2018,07,23,07,18,21.50
2018,07,23,07,19,21.50
2018,07,23,07,20,21.50
2018,07,23,07,21,21.50
2018,07,23,07,22,21.50
2018,07,23,07,23,21.50
2018,07,23,07,24,21.60
2018,07,23,07,25,21.60
2018,07,23,07,26,21.60
2018,07,23,07,27,21.60
2018,07,23,07,28,21.60
2018,07,23,07,29,21.60
2018,07,23,07,30,21.60
2018,07,23,07,31,21.60
2018,07,23,07,32,21.60
2018,07,23,07,33,21.70
2018,07,23,07,34,21.70
2018,07,23,07,35,21.70
2018,07,23,07,36,21.70
2018,07,23,07,37,21.70
2018,07,23,07,38,21.70
2018,07,23,07,39,21.70
2018,07,23,07,40,21.70
2018,07,23,07,41,21.80
2018,07,23,07,42,21.80
2018,07,23,07,43,21.80
2018,07,23,07,44,21.80
2018,07,23,07,45,21.80
2018,07,23,07,46,21.80
2018,07,23,07,47,21.90
2018,07,23,07,48,21.90
2018,07,23,07,49,22.00
2018,07,23,07,50,22.00
2018,07,23,07,51,22.00
2018,07,23,07,52,22.00
2018,07,23,07,53,22.10
2018,07,23,07,54,22.10
2018,07,23,07,55,22.10
2018,07,23,07,56,22.20
2018,07,23,07,57,22.20
2018,07,23,07,58,22.30
2018,07,23,07,59,22.30
2018,07,23,08,00,22.30
2018,07,23,08,01,22.30
2018,07,23,08,02,22.30
2018,07,23,08,03,22.30
2018,07,23,08,04,22.30
2018,07,23,08,05,22.30
2018,07,23,08,06,22.30
2018,07,23,08,07,22.30
2018,07,23,08,08,22.30
2018,07,23,08,09,22.30
2018,07,23,08,10,22.30
2018,07,23,08,11,22.20
2018,07,23,08,12,22.10
2018,07,23,08,13,22.00
2018,07,23,08,14,21.90
2018,07,23,08,15,21.80
2018,07,23,08,16,21.70
2018,07,23,08,17,21.70
2018,07,23,08,18,21.60
2018,07,23,08,19,21.60
2018,07,23,08,20,21.50
2018,07,23,08,21,21.50
2018,07,23,08,22,21.40
2018,07,23,08,23,21.40
2018,07,23,08,24,21.30
2018,07,23,08,25,21.30
2018,07,23,08,26,21.30
2018,07,23,08,27,21.30
2018,07,23,08,28,21.30
2018,07,23,08,29,21.30
2018,07,23,08,30,21.30
2018,07,23,08,31,21.30
2018,07,23,08,32,21.30
2018,07,23,08,33,21.30
2018,07,23,08,34,21.20
2018,07,23,08,35,21.20
2018,07,23,08,36,21.20
2018,07,23,08,37,21.20
2018,07,23,08,38,21.20
2018,07,23,08,39,21.20
2018,07,23,08,40,21.20
2018,07,23,08,41,21.20
2018,07,23,08,42,21.20
2018,07,23,08,43,21.10
2018,07,23,08,44,21.10
2018,07,23,08,45,21.10
2018,07,23,08,46,21.10
2018,07,23,08,47,21.10
2018,07,23,08,48,21.20
2018,07,23,08,49,21.20
2018,07,23,08,50,21.20
2018,07,23,08,51,21.30
2018,07,23,08,52,21.30
2018,07,23,08,53,21.30
2018,07,23,08,54,21.30
2018,07,23,08,55,21.30
2018,07,23,08,56,21.30
2018,07,23,08,57,21.40
2018,07,23,08,58,21.40
2018,07,23,08,59,21.40
2018,07,23,09,00,21.40
2018,07,23,09,01,21.40
2018,07,23,09,02,21.40
2018,07,23,09,03,21.50
2018,07,23,09,04,21.50
2018,07,23,09,05,21.60
2018,07,23,09,06,21.60
2018,07,23,09,07,21.60
2018,07,23,09,08,21.60
2018,07,23,09,09,21.60
2018,07,23,09,10,21.60
2018,07,23,09,11,21.60
2018,07,23,09,12,21.70
2018,07,23,09,13,21.70
2018,07,23,09,14,21.70
2018,07,23,09,15,21.70
2018,07,23,09,16,21.80
2018,07,23,09,17,21.80
2018,07,23,09,18,21.80
2018,07,23,09,19,21.80
2018,07,23,09,20,21.90
2018,07,23,09,21,21.90
2018,07,23,09,22,21.90
2018,07,23,09,23,22.00
2018,07,23,09,24,22.00
2018,07,23,09,25,22.00
2018,07,23,09,26,22.10
2018,07,23,09,27,22.00
2018,07,23,09,28,22.00
2018,07,23,09,29,22.00
2018,07,23,09,30,22.10
2018,07,23,09,31,22.10
2018,07,23,09,32,22.10
2018,07,23,09,33,22.20
2018,07,23,09,34,22.20
2018,07,23,09,35,22.20
2018,07,23,09,36,22.20
2018,07,23,09,37,22.30
2018,07,23,09,38,22.30
2018,07,23,09,39,22.30
2018,07,23,09,40,22.30
2018,07,23,09,41,22.40
2018,07,23,09,42,22.40
2018,07,23,09,43,22.40
2018,07,23,09,44,22.30
2018,07,23,09,45,22.30
2018,07,23,09,46,22.40
2018,07,23,09,47,22.40
2018,07,23,09,48,22.50
2018,07,23,09,49,22.60
2018,07,23,09,50,22.60
2018,07,23,09,51,22.70
2018,07,23,09,52,22.70
2018,07,23,09,53,22.70
2018,07,23,09,54,22.70
2018,07,23,09,55,22.70
2018,07,23,09,56,22.70
2018,07,23,09,57,22.60
2018,07,23,09,58,22.60
2018,07,23,09,59,22.60
2018,07,23,10,00,22.60
2018,07,23,10,01,22.60
2018,07,23,10,02,22.70
2018,07,23,10,03,22.70
2018,07,23,10,04,22.70
2018,07,23,10,05,22.70
2018,07,23,10,06,22.70
2018,07,23,10,07,22.80
2018,07,23,10,08,22.80
2018,07,23,10,09,22.90
2018,07,23,10,10,23.00
2018,07,23,10,11,23.00
2018,07,23,10,12,23.10
2018,07,23,10,13,23.20
2018,07,23,10,14,23.20
2018,07,23,10,15,23.20
2018,07,23,10,16,23.30
2018,07,23,10,17,23.30
2018,07,23,10,18,23.40
2018,07,23,10,19,23.40
2018,07,23,10,20,23.50
2018,07,23,10,21,23.50
2018,07,23,10,22,23.60
2018,07,23,10,23,23.60
2018,07,23,10,24,23.70
2018,07,23,10,25,23.70
2018,07,23,10,26,23.70
2018,07,23,10,27,23.70
2018,07,23,10,28,23.70
2018,07,23,10,29,23.60
2018,07,23,10,30,23.60
2018,07,23,10,31,23.60
2018,07,23,10,32,23.60
2018,07,23,10,33,23.50
2018,07,23,10,34,23.50
2018,07,23,10,35,23.50
2018,07,23,10,36,23.50
2018,07,23,10,37,23.50
2018,07,23,10,38,23.50
2018,07,23,10,39,23.60
2018,07,23,10,40,23.60
2018,07,23,10,41,23.70
2018,07,23,10,42,23.70
2018,07,23,10,43,23.80
2018,07,23,10,44,23.80
2018,07,23,10,45,23.90
2018,07,23,10,46,23.90
2018,07,23,10,47,24.00
2018,07,23,10,48,24.00
2018,07,23,10,49,24.00
2018,07,23,10,50,24.00
2018,07,23,10,51,23.90
2018,07,23,10,52,24.00
2018,07,23,10,53,24.00
2018,07,23,10,54,24.10
2018,07,23,10,55,24.10
2018,07,23,10,56,24.10
2018,07,23,10,57,24.10
2018,07,23,10,58,24.20
2018,07,23,10,59,24.20
2018,07,23,11,00,24.20
2018,07,23,11,01,24.20
2018,07,23,11,02,24.20
2018,07,23,11,03,24.20
2018,07,23,11,04,24.20
2018,07,23,11,05,24.20
2018,07,23,11,06,24.20
2018,07,23,11,07,24.30
2018,07,23,11,08,24.30
2018,07,23,11,09,24.30
2018,07,23,11,10,24.40
2018,07,23,11,11,24.40
2018,07,23,11,12,24.30
2018,07,23,11,13,24.30
2018,07,23,11,14,24.30
2018,07,23,11,15,24.30
2018,07,23,11,16,24.30
2018,07,23,11,17,24.30
2018,07,23,11,18,24.30
2018,07,23,11,19,24.20
2018,07,23,11,20,24.20
2018,07,23,11,21,24.20
2018,07,23,11,22,24.20
2018,07,23,11,23,24.20
2018,07,23,11,24,24.20
2018,07,23,11,25,24.20
2018,07,23,11,26,24.20
2018,07,23,11,27,24.20
2018,07,23,11,28,24.20
2018,07,23,11,29,24.20
2018,07,23,11,30,24.20
2018,07,23,11,31,24.10
2018,07,23,11,32,24.10
2018,07,23,11,33,24.10
2018,07,23,11,34,24.10
2018,07,23,11,35,24.10
2018,07,23,11,36,24.00
2018,07,23,11,37,24.00
2018,07,23,11,38,24.00
2018,07,23,11,39,24.10
2018,07,23,11,40,24.20
2018,07,23,11,41,24.20
2018,07,23,11,42,24.20
2018,07,23,11,43,24.30
2018,07,23,11,44,24.30
2018,07,23,11,45,24.30
2018,07,23,11,46,24.30
2018,07,23,11,47,24.30
2018,07,23,11,48,24.40
2018,07,23,11,49,24.40
2018,07,23,11,50,24.40
2018,07,23,11,51,24.50
2018,07,23,11,52,24.50
2018,07,23,11,53,24.60
2018,07,23,11,54,24.60
2018,07,23,11,55,24.60
2018,07,23,11,56,24.60
2018,07,23,11,57,24.70
2018,07,23,11,58,24.70
2018,07,23,11,59,24.70
2018,07,23,12,00,24.70
2018,07,23,12,01,24.60
2018,07,23,12,02,24.60
2018,07,23,12,03,24.60
2018,07,23,12,04,24.60
2018,07,23,12,05,24.60
2018,07,23,12,06,24.60
2018,07,23,12,07,24.60
2018,07,23,12,08,24.60
2018,07,23,12,09,24.60
2018,07,23,12,10,24.60
2018,07,23,12,11,24.70
2018,07,23,12,12,24.70
2018,07,23,12,13,24.80
2018,07,23,12,14,24.80
2018,07,23,12,15,24.80
2018,07,23,12,16,24.80
2018,07,23,12,17,24.80
2018,07,23,12,18,24.80
2018,07,23,12,19,24.80
2018,07,23,12,20,24.80
2018,07,23,12,21,24.80
2018,07,23,12,22,24.80
2018,07,23,12,23,24.80
2018,07,23,12,24,24.80
2018,07,23,12,25,24.80
2018,07,23,12,26,24.80
2018,07,23,12,27,24.90
2018,07,23,12,28,25.00
2018,07,23,12,29,25.00
2018,07,23,12,30,25.10
2018,07,23,12,31,25.10
2018,07,23,12,32,25.20
2018,07,23,12,33,25.30
2018,07,23,12,34,25.30
2018,07,23,12,35,25.30
2018,07,23,12,36,25.30
2018,07,23,12,37,25.30
2018,07,23,12,38,25.40
2018,07,23,12,39,25.40
2018,07,23,12,40,25.40
2018,07,23,12,41,25.50
2018,07,23,12,42,25.50
2018,07,23,12,43,25.40
2018,07,23,12,44,25.40
2018,07,23,12,45,25.50
2018,07,23,12,46,25.50
2018,07,23,12,47,25.60
2018,07,23,12,48,25.70
2018,07,23,12,49,25.70
2018,07,23,12,50,25.80
2018,07,23,12,51,25.70
2018,07,23,12,52,25.70
2018,07,23,12,53,25.70
2018,07,23,12,54,25.70
2018,07,23,12,55,25.80
2018,07,23,12,56,25.80
2018,07,23,12,57,25.80
2018,07,23,12,58,25.80
2018,07,23,12,59,25.80
2018,07,23,13,00,25.80
2018,07,23,13,01,25.80
2018,07,23,13,02,25.80
2018,07,23,13,03,25.80
2018,07,23,13,04,25.80
2018,07,23,13,05,25.80
2018,07,23,13,06,25.80
2018,07,23,13,07,25.90
2018,07,23,13,08,25.90
2018,07,23,13,09,25.90
2018,07,23,13,10,26.00
2018,07,23,13,11,26.00
2018,07,23,13,12,26.10
2018,07,23,13,13,26.10
2018,07,23,13,14,26.10
2018,07,23,13,15,26.10
2018,07,23,13,16,26.10
2018,07,23,13,17,26.10
2018,07,23,13,18,26.10
2018,07,23,13,19,26.20
2018,07,23,13,20,26.20
2018,07,23,13,21,26.20
2018,07,23,13,22,26.20
2018,07,23,13,23,26.20
2018,07,23,13,24,26.20
2018,07,23,13,25,26.10
2018,07,23,13,26,26.10
2018,07,23,13,27,26.00
2018,07,23,13,28,25.90
2018,07,23,13,29,25.80
2018,07,23,13,30,25.70
2018,07,23,13,31,25.70
2018,07,23,13,32,25.80
2018,07,23,13,33,25.80
2018,07,23,13,34,25.80
2018,07,23,13,35,25.90
2018,07,23,13,36,26.00
2018,07,23,13,37,26.00
2018,07,23,13,38,26.10
2018,07,23,13,39,26.20
2018,07,23,13,40,26.20
2018,07,23,13,41,26.30
2018,07,23,13,42,26.30
2018,07,23,13,43,26.30
2018,07,23,13,44,26.40
2018,07,23,13,45,26.40
2018,07,23,13,46,26.50
2018,07,23,13,47,26.50
2018,07,23,13,48,26.50
2018,07,23,13,49,26.50
2018,07,23,13,50,26.60
2018,07,23,13,51,26.70
2018,07,23,13,52,26.70
2018,07,23,13,53,26.80
2018,07,23,13,54,26.80
2018,07,23,13,55,26.80
2018,07,23,13,56,26.70
2018,07,23,13,57,26.70
2018,07,23,13,58,26.70
2018,07,23,13,59,26.70
2018,07,23,14,00,26.80
2018,07,23,14,01,26.80
2018,07,23,14,02,26.80
2018,07,23,14,03,26.80
2018,07,23,14,04,26.80
2018,07,23,14,05,26.80
2018,07,23,14,06,26.80
2018,07,23,14,07,26.80
2018,07,23,14,08,26.80
2018,07,23,14,09,26.80
2018,07,23,14,10,26.70
2018,07,23,14,11,26.60
2018,07,23,14,12,26.60
2018,07,23,14,13,26.60
2018,07,23,14,14,26.70
2018,07,23,14,15,26.70
2018,07,23,14,16,26.80
2018,07,23,14,17,26.90
2018,07,23,14,18,27.00
2018,07,23,14,19,27.00
2018,07,23,14,20,27.00
2018,07,23,14,21,27.00
2018,07,23,14,22,26.90
2018,07,23,14,23,26.90
2018,07,23,14,24,26.80
2018,07,23,14,25,26.80
2018,07,23,14,26,26.90
2018,07,23,14,27,26.90
2018,07,23,14,28,26.90
2018,07,23,14,29,26.80
2018,07,23,14,30,26.70
2018,07,23,14,31,26.70
2018,07,23,14,32,26.80
2018,07,23,14,33,26.80
2018,07,23,14,34,26.80
2018,07,23,14,35,26.90
2018,07,23,14,36,26.90
2018,07,23,14,37,27.10
2018,07,23,14,38,27.20
2018,07,23,14,39,27.30
2018,07,23,14,40,27.50
2018,07,23,14,41,27.50
2018,07,23,14,42,27.50
2018,07,23,14,43,27.50
2018,07,23,14,44,27.50
2018,07,23,14,45,27.60
2018,07,23,14,46,27.60
2018,07,23,14,47,27.60
2018,07,23,14,48,27.50
2018,07,23,14,49,27.60
2018,07,23,14,50,27.60
2018,07,23,14,51,27.60
2018,07,23,14,52,27.60
2018,07,23,14,53,27.70
2018,07,23,14,54,27.80
2018,07,23,14,55,27.90
2018,07,23,14,56,27.90
2018,07,23,14,57,27.90
2018,07,23,14,58,28.00
2018,07,23,14,59,28.10
2018,07,23,15,00,28.10
2018,07,23,15,01,28.20
2018,07,23,15,02,28.20
2018,07,23,15,03,28.10
2018,07,23,15,04,28.10
2018,07,23,15,05,28.10
2018,07,23,15,06,28.10
2018,07,23,15,07,28.20
2018,07,23,15,08,28.20
2018,07,23,15,09,28.10
2018,07,23,15,10,28.10
2018,07,23,15,11,28.10
2018,07,23,15,12,28.20
2018,07,23,15,13,28.20
2018,07,23,15,14,28.30
2018,07,23,15,15,28.40
2018,07,23,15,16,28.50
2018,07,23,15,17,28.60
2018,07,23,15,18,28.60
2018,07,23,15,19,28.70
2018,07,23,15,20,28.70
2018,07,23,15,21,28.70
2018,07,23,15,22,28.70
2018,07,23,15,23,28.70
2018,07,23,15,24,28.80
2018,07,23,15,25,28.80
2018,07,23,15,26,28.80
2018,07,23,15,27,28.80
2018,07,23,15,28,28.80
2018,07,23,15,29,28.80
2018,07,23,15,30,28.80
2018,07,23,15,31,28.90
2018,07,23,15,32,29.00
2018,07,23,15,33,29.10
2018,07,23,15,34,29.10
2018,07,23,15,35,29.20
2018,07,23,15,36,29.20
2018,07,23,15,37,29.20
2018,07,23,15,38,29.20
2018,07,23,15,39,29.10
2018,07,23,15,40,29.10
2018,07,23,15,41,29.10
2018,07,23,15,42,29.20
2018,07,23,15,43,29.20
2018,07,23,15,44,29.20
2018,07,23,15,45,29.20
2018,07,23,15,46,29.00
2018,07,23,15,47,28.90
2018,07,23,15,48,28.80
2018,07,23,15,49,28.60
2018,07,23,15,50,28.50
2018,07,23,15,51,28.40
2018,07,23,15,52,28.30
2018,07,23,15,53,28.20
2018,07,23,15,54,28.10
2018,07,23,15,55,28.10
2018,07,23,15,56,28.10
2018,07,23,15,57,28.10
2018,07,23,15,58,28.20
2018,07,23,15,59,28.20
2018,07,23,16,00,28.30
2018,07,23,16,01,28.40
2018,07,23,16,02,28.50
2018,07,23,16,03,28.50
2018,07,23,16,04,28.60
2018,07,23,16,05,28.70
2018,07,23,16,06,28.70
2018,07,23,16,07,28.70
2018,07,23,16,08,28.70
2018,07,23,16,09,28.80
2018,07,23,16,10,28.90
2018,07,23,16,11,28.90
2018,07,23,16,12,28.90
2018,07,23,16,13,28.90
2018,07,23,16,14,28.90
2018,07,23,16,15,29.00
2018,07,23,16,16,29.00
2018,07,23,16,17,29.10
2018,07,23,16,18,29.10
2018,07,23,16,19,29.10
2018,07,23,16,20,29.20
2018,07,23,16,21,29.30
2018,07,23,16,22,29.30
2018,07,23,16,23,29.40
2018,07,23,16,24,29.30
2018,07,23,16,25,29.10
2018,07,23,16,26,29.00
2018,07,23,16,27,28.60
2018,07,23,16,28,28.20
2018,07,23,16,29,27.60
2018,07,23,16,30,27.10
2018,07,23,16,31,26.60
2018,07,23,16,32,26.20
2018,07,23,16,33,25.90
2018,07,23,16,34,25.70
2018,07,23,16,35,25.50
2018,07,23,16,36,25.40
2018,07,23,16,37,25.30
2018,07,23,16,38,25.30
2018,07,23,16,39,25.40
2018,07,23,16,40,25.50
2018,07,23,16,41,25.70
2018,07,23,16,42,25.90
2018,07,23,16,43,26.10
2018,07,23,16,44,26.40
2018,07,23,16,45,26.50
2018,07,23,16,46,26.70
2018,07,23,16,47,26.80
2018,07,23,16,48,27.00
2018,07,23,16,49,27.20
2018,07,23,16,50,27.30
2018,07,23,16,51,27.40
2018,07,23,16,52,27.50
2018,07,23,16,53,27.60
2018,07,23,16,54,27.70
2018,07,23,16,55,27.60
2018,07,23,16,56,27.50
2018,07,23,16,57,27.40
2018,07,23,16,58,27.20
2018,07,23,16,59,27.10
2018,07,23,17,00,26.80
2018,07,23,17,01,26.50
2018,07,23,17,02,26.30
2018,07,23,17,03,26.10
2018,07,23,17,04,26.00
2018,07,23,17,05,25.80
2018,07,23,17,06,25.60
2018,07,23,17,07,25.40
2018,07,23,17,08,25.30
2018,07,23,17,09,25.20
2018,07,23,17,10,25.00
2018,07,23,17,11,24.80
2018,07,23,17,12,24.70
2018,07,23,17,13,24.60
2018,07,23,17,14,24.50
2018,07,23,17,15,24.40
2018,07,23,17,16,24.40
2018,07,23,17,17,24.40
2018,07,23,17,18,24.40
2018,07,23,17,19,24.50